This demonstration page uses our WeatherBlox Daily Observations layout. Learn more.

Left ArrowRight Arrow

44.89941, -97.11507

Hourly Observations for May 25, 2022

Temp ( °F °C ) Dew Point ( °F °C ) Humidity (%) Winds ( mph kmh ) Pressure ( in mb ) Visibility ( mi km ) Precip ( " mm )
12:53 am 00:53 Clear 55 12.8 38 3.3 53 53 SE 9 15 30.07 1018 10 16 0.00 0.00
1:53 am 01:53 Partly Cloudy 52 11.1 45 7.2 77 77 SW 8 13 30.07 1018 10 16 0.00 0.00
2:53 am 02:53 Cloudy 51 10.6 45 7.2 80 80 W 5 7 30.06 1018 10 16 0.00 0.00
3:53 am 03:53 Cloudy 50 10 45 7.2 83 83 S 5 7 30.05 1018 10 16 0.00 0.00
4:53 am 04:53 Cloudy 50 10 45 7.2 83 83 SE 3 6 30.05 1018 10 16 0.00 0.00
5:53 am 05:53 Cloudy with Light Rain 49 9.4 47 8.3 93 93 NW 5 7 30.04 1017 9 14 0.00 0.00
6:53 am 06:53 Cloudy with Light Rain 49 9.4 47 8.3 93 93 N 7 11 30.05 1018 5 8 0.01 0.25
7:53 am 07:53 Cloudy with Light Rain 49 9.4 46 7.8 90 90 NE 8 13 30.07 1018 10 16 0.02 0.51
8:53 am 08:53 Cloudy 50 10 46 7.8 86 86 NNE 8 13 30.07 1018 10 16 0.00 0.00
9:53 am 09:53 Cloudy 52 11.1 45 7.2 77 77 ENE 17 28 30.04 1017 10 16 0.00 0.00
10:40 am 10:40 Cloudy 52 11.1 45 7.2 77 77 NE 15 24 30.02 1017 10 16 0.00 0.00
10:53 am 10:53 Cloudy 51 10.6 45 7.2 80 80 NE 18 30 30.01 1016 10 16 0.00 0.00
11:53 am 11:53 Cloudy 51 10.6 44 6.7 77 77 ENE 15 24 30.00 1016 10 16 0.00 0.00
12:53 pm 12:53 Cloudy 51 10.6 45 7.2 80 80 ENE 15 24 29.99 1016 10 16 0.00 0.00
1:53 pm 13:53 Cloudy 51 10.6 46 7.8 83 83 NE 13 20 29.98 1015 10 16 0.00 0.00
2:12 pm 14:12 Cloudy 52 11.1 46 7.8 80 80 NE 12 19 29.97 1015 10 16 0.00 0.00
2:53 pm 14:53 Cloudy 54 12.2 47 8.3 77 77 NE 9 15 29.97 1015 10 16 0.00 0.00
3:53 pm 15:53 Cloudy 55 12.8 46 7.8 72 72 NNE 13 20 29.95 1014 10 16 0.00 0.00
4:53 pm 16:53 Cloudy 54 12.2 45 7.2 72 72 NE 15 24 29.94 1014 10 16 0.00 0.00
5:53 pm 17:53 Cloudy 53 11.7 45 7.2 74 74 NNE 13 20 29.94 1014 10 16 0.00 0.00
6:53 pm 18:53 Cloudy 53 11.7 45 7.2 74 74 NE 9 15 29.93 1014 10 16 0.00 0.00
7:53 pm 19:53 Cloudy 52 11.1 45 7.2 77 77 NE 10 17 29.93 1014 10 16 0.00 0.00
8:01 pm 20:01 Cloudy 52 11.1 45 7.2 77 77 NNE 10 17 29.91 1013 10 16 0.00 0.00
8:53 pm 20:53 Sunny 49 9.4 44 6.7 83 83 NNE 7 11 29.92 1013 10 16 0.00 0.00
9:53 pm 21:53 Clear 44 6.7 42 5.6 93 93 NE 7 11 29.92 1013 10 16 0.00 0.00
10:53 pm 22:53 Mostly Cloudy 46 7.8 43 6.1 89 89 NE 6 9 29.93 1014 10 16 0.00 0.00
11:53 pm 23:53 Mostly Clear 45 7.2 43 6.1 93 93 N 5 7 29.92 1013 10 16 0.00 0.00

Powered by AerisWeather